Location: Bilsen
(53.7722°N, 9.8765°E)
Time: 15:54:01
(UTC+00:00)

Cosmos 1980 Rocket - Pass Details

Date: 18 February 2020
Orbit: 831 x 848 km, 71.0° (Epoch: 07 April)

Event Time Altitude Azimuth Distance (km) Brightness Sun altitude
Exits shadow 04:17:12 - 329° (NNW) 2,692 4.6 -20.9°
Reaches altitude 10° 04:18:20 10° 338° (NNW) 2,456 4.5 -20.7°
Maximum altitude 04:21:18 14° 10° (N) 2,158 4.5 -20.3°
Drops below altitude 10° 04:24:17 10° 43° (NE) 2,451 5.3 -19.9°
Sets 04:27:59 0° 67° (ENE) 3,382 6.7 -19.3°
